Location: Stara Lesna
(49.1528°N, 20.2911°E)
Time: 10:16:20
(UTC+02:00)

NOSS 2-1 (C) - Pass Details

Date: 13 July 2020
Orbit: 443 x 1759 km, 63.3° (Epoch: 29 July)

Event Time Altitude Azimuth Distance (km) Brightness Sun altitude
Rises 01:22:10 0° 318° (NW) 2,945 7.6 -18.6°
Reaches altitude 10° 01:24:09 10° 320° (NW) 2,167 6.9 -18.5°
Maximum altitude 01:29:07 79° 47° (NE) 894 4.4 -18.4°
Drops below altitude 10° 01:36:07 10° 135° (SE) 3,024 6.8 -18.1°
Sets 01:39:20 0° 136° (SE) 4,203 7.5 -18.0°
